Showing default

ICEYE-X25, 56963

Orbit data source: Space-Track

ICEYE-X25, 56963 is a payload satellite owned by ICEYE (FI) in SSO that was launched on Mon, 12 Jun 2023 UTC via an FALCON 9 launch vehicle from the Air Force Western Test Range (AFWTR). Payload-class satellites include a variety of spacecraft equipped with specific instruments for various scientific and technological missions. These include communications satellites like Starlink; space stations such as the ISS; scientific satellites like the Hubble; Earth observation satellites from companies like Planet Labs, Umbra, and HawkEye 360; GPS; miniature CubeSats for education and research; and military/defense satellites.

Loading next visibility...
Identifier
56963, 2023-084AH
Orbit
SSO
Last TLE update
14 hours ago
Origin
Manufacturer
ICEYE
Mission
Operational Commercial Radar Imaging
Bus & Motor
ICEYE, Unknown motor
Mass
90 kg wet, 89 kg dry
Launch date (UTC)
Icon of a cake. It is the launch day of the satellite!2023-06-12 (2 years ago)
Launch vehicle
FALCON 9
Launch site
Air Force Western Test Range (AFWTR)
Object type
Payload
Rocket body
Debris
Shape & HBR
Box + 1 Pan, 3.25 m
Radar Cross Section
0.825 m², Medium (>0.1 m² and < 1m²)

Expand to show TLE details & history

TLE from 14 hours ago
0 ICEYE-X25
1 56963U 23084AH  25163.08582258  .00015310  00000-0  49064-3 0  9997
2 56963  97.5632 288.7853 0008717 183.0480 177.0709 15.32421294110850
Epoch: 2025-06-12T02:03Z
TLE epoch observation values (Epoch: 2025-06-12T02:03:35.07Z)
Latitude
-0.00013°
Longitude
-2.76984°
Altitude
477.655 km
Speed
7.624 km/s
True Right ascension
19h 15m 08s
True Declination
0° 00' 00"
Sunlit
Object was in full shadow at epoch
Visualization orbit readout
Latitude
-41.58647°
Longitude
171.07569°
Altitude
480.037 km
Speed
7.627 km/s
Apparent Right ascension
10h 16m 58s
Apparent Declination
-55° 11' 19"
Sunlit
Object is in daylight
Visualization observer readout
Local Sidereal Time
01:58:04
Azimuth
131.904° SE
Elevation
-50.918°
Doppler factor
1
Orbital elements
Apogee altitude
471.512 km
Perigee altitude
459.581 km
Semi-major axis
6,843.684 km
Eccentricity
0.00087
Inclination
97.5632°
RAAN
288.7853°
Arg. of periapsis
183.048°
True anomaly
Unknown
Mean anomaly
177.0709°
Eccentric anomaly
Unknown
Mean motion
3.83361 °/min
Orbital period
93.91 mins
BSTAR
0.00049064
Loading maneuver chart data...
Loading SW <> Apogee altitude chart data...
Loading historical data...
Loading historical data...
Loading historical data...
Loading historical data...
Loading historical data...
Loading historical data...
Loading historical data...

ICEYE-X25 Visibility forecast

Observer location: undefined°, undefined°

Span
Click to sort rows by Start time (UTC) header in descending order
Start Az.
Max El. time (UTC)
Max El. Az.
Max El.
End time (UTC)
End Az.
5 mins2025-06-12 21:25:41.297Z3.518° NNE2025-06-12 21:28:41.297Z243.51° WSW40.219°2025-06-12 21:30:41.297Z205.617° SW
4 mins2025-06-13 07:59:41.297Z118.015° SE2025-06-13 08:00:41.297Z85.96° E30.438°2025-06-13 08:03:41.297Z8.813° NNE
|